Location: Unspecified
(0.0000°N, 0.0000°E)
Time: 14:56:59
(UTC+00:00)

Cosmos 381 - Visible Passes

Search period start: 12 April 2021 00:00
Search period end: 22 April 2021 00:00
Orbit: 959 x 1005 km, 74.0° (Epoch: 11 April)

Date Brightness Start Highest point End Pass type
(mag) Time Alt. Az. Time Alt. Az. Time Alt. Az.
12 Apr 8.6 03:19:41 10° SE 03:22:42 14° ESE 03:25:43 10° ENE visible
12 Apr 6.2 05:03:15 10° SSW 05:09:08 45° WNW 05:15:02 10° N visible
13 Apr 7.3 03:45:11 12° SSE 03:50:16 36° ESE 03:55:52 10° NE visible
13 Apr 7.3 05:32:41 10° WSW 05:36:41 18° WNW 05:40:42 10° NW visible
14 Apr 5.9 04:14:29 30° S 04:17:47 88° E 04:24:02 10° NNE visible
15 Apr 8.2 02:58:27 17° ESE 02:58:53 17° ESE 03:02:45 10° ENE visible
15 Apr 6.4 04:43:22 30° WSW 04:45:19 37° WNW 04:51:00 10° NNW visible
16 Apr 7.0 03:27:05 42° E 03:27:05 42° E 03:32:17 10° NNE visible
16 Apr 7.4 05:11:58 14° W 05:12:52 15° WNW 05:16:06 10° NW visible
17 Apr 6.3 03:55:29 53° N 03:55:29 53° N 04:00:12 10° N visible
18 Apr 8.6 02:38:50 12° ENE 02:38:50 12° ENE 02:39:34 10° NE visible
18 Apr 7.2 04:23:42 25° NW 04:23:42 25° NW 04:26:54 10° NNW visible
19 Apr 8.0 03:06:54 19° NNE 03:06:54 19° NNE 03:08:39 10° NNE visible
20 Apr 7.9 03:34:52 18° N 03:34:52 18° N 03:36:19 10° N visible
21 Apr 8.2 04:02:42 10° NNW 04:02:42 10° NNW 04:02:44 10° NNW visible
